This is the latest recevied weather packets stored in our database for station/object N2MLB-WX. If no packets are shown the sender has not sent any weather packets the latest 10 day(s).
| Time | Temp. | Humidity | Pressure | Rain* | Wind** | Luminosity | Snow |
|---|---|---|---|---|---|---|---|
| 1777820242 | 10° C | 69% | 1010 hPa | 0 mm | - | 51 W/m² | - |
| 1777819943 | 11.11° C | 65% | 1010 hPa | 0 mm | - | 101 W/m² | - |
| 1777819641 | 11.11° C | 66% | 1010 hPa | 0 mm | - | 119 W/m² | - |
| 1777819346 | 10.56° C | 66% | 1010 hPa | 0 mm | - | 68 W/m² | - |
| 1777819042 | 10.56° C | 67% | 1010 hPa | 0 mm | - | 121 W/m² | - |
| 1777818742 | 11.67° C | 68% | 1010 hPa | 0 mm | - | 124 W/m² | - |
| 1777818440 | 10.56° C | 68% | 1010 hPa | 0 mm | - | 119 W/m² | - |
| 1777818141 | 11.11° C | 66% | 1010 hPa | 0 mm | - | 112 W/m² | - |
| 1777817539 | 10.56° C | 66% | 1010 hPa | 0 mm | - | 115 W/m² | - |
| 1777817243 | 11.67° C | 66% | 1010 hPa | 0 mm | - | 103 W/m² | - |
| 1777816942 | 10.56° C | 65% | 1010 hPa | 0 mm | - | 100 W/m² | - |
| 1777816641 | 10° C | 67% | 1010 hPa | 0 mm | - | 97 W/m² | - |
| 1777816343 | 11.11° C | 65% | 1010 hPa | 0 mm | - | 94 W/m² | - |
| 1777816039 | 10° C | 65% | 1010 hPa | 0 mm | - | 91 W/m² | - |
| 1777815739 | 10.56° C | 64% | 1010 hPa | 0 mm | - | 88 W/m² | - |
| 1777815442 | 10.56° C | 64% | 1010 hPa | 0 mm | - | 85 W/m² | - |
| 1777815141 | 10° C | 67% | 1010 hPa | 0 mm | - | 82 W/m² | - |
| 1777814842 | 10.56° C | 64% | 1010 hPa | 0 mm | - | 79 W/m² | - |
| 1777814541 | 11.11° C | 63% | 1010 hPa | 0 mm | - | 75 W/m² | - |
| 1777814241 | 11.11° C | 62% | 1010 hPa | 0 mm | - | 75 W/m² | - |
| 1777813941 | 10.56° C | 60% | 1010 hPa | 0 mm | - | 68 W/m² | - |
| 1777813642 | 10° C | 60% | 1010 hPa | 0 mm | - | 65 W/m² | - |
| 1777813340 | 11.11° C | 59% | 1010 hPa | 0 mm | - | 62 W/m² | - |
| 1777813039 | 10.56° C | 57% | 1010 hPa | 0 mm | - | 59 W/m² | - |
| 1777812742 | 10.56° C | 60% | 1010 hPa | 0 mm | - | 56 W/m² | - |
* Rain latest hour (hover to see other rain measurements)
** Current wind speed in m/s (hover to see current wind gust speed)